LEMUR-2 PETER

Last updated on Fri Jun 10 2016 05:57:29 GMT+0000 (Coordinated Universal Time)

1 40935U 15052F 16161.16300166 .00001289 00000-0 91720-4 0 9995 2 40935 6.0042 13.2615 0010636 358.5989 1.4086 14.76364366 37719
UTC large
Height (km)
Speed (km/s)
/
Latitude / Longitude
Inclination (degrees)
Orbital Period (minutes)
Azimuth
Elevation
Range (km)
Doppler Factor

Next 0 passes for location: London (51.5072 / 0.1276)

Sorry there are no passes over London.